Find Starlink 31999

NORAD ID: 60101 Int'l Des: 2024-117 Owner: SPXS Country: US Constellation: starlink operational
LEOCIRCULAR

实时位置

正在加载3D地球...

关于 Starlink 31999

正在加载描述...

即将过境

Passes for default location (London). Set your location on the main map for personalized predictions.

高度历史

Loading altitude history...

两行轨道根数

1 60101U 24117L 26127.15212468 -.00000386 00000-0 -90960-6 0 9999
2 60101 53.1595 125.8335 0001651 104.5251 255.5933 15.30190850105837
Epoch: May 7, 2026 • Age: 5 hours

当前状态

高度 479.8 km
速度 7.63 km/s
星下点 48.58°N, 172.54°W
发射日期 Jun 23, 2024
运行时间 1.8 years
类型 internet

技术详情

分类 Payload
质量 730.00 kg
干质量 700.00 kg
总质量 730.00 kg
长度 0.30 m
直径 4.10 m
跨度 29.00 m
形状 Box + pan
制造商 SPXS
平台类型 Starlink V2M
阶段状态 In Orbit
所有者/国家 SPXS/US

Most Searched